DELTA 1 DEB, 7136

Orbit data source: Space-Track

DELTA 1 DEB, 7136 is space debris in SSO originally from a launch on Tue, 06 Nov 1973 UTC launched from the Air Force Western Test Range (AFWTR). Debris objects in space refer to the collection of defunct objects orbiting the Earth. Examples of debris include non-operational satellites, rocket bodies, and fragments generated from explosions, collisions, or faulty payload assembly.

Loading next visibility...
Identifier
7136, 1973-086DA
Orbit
SSO
Country
Flag of USUS
Related business
Manufacturer
Unknown
Mission
Spacecraft
Bus & Motor
Unknown
Mass
Unknown
Launch date (UTC)
1973-11-06 (52 years ago)
Launch vehicle
Unknown
Launch site
Air Force Western Test Range (AFWTR)
Object type
Payload
Rocket body
Debris
Shape & HBR
Unknown shape, 0.1 m
Radar Cross Section
Small (<0.1 m²)

Expand to show TLE details & history
Last TLE update: 1 day ago

TLE from 1 day ago
0 DELTA 1 DEB
1  7136U 73086DA  26121.90268815  .00000196  00000-0  14922-2 0  9998
2  7136 101.5998 101.0581 0044508 169.3011 248.5784 12.53975897395696
Epoch: 2026-05-01T21:39Z
TLE epoch observation values (Epoch: 2026-05-01T21:39:52.256Z)
Latitude
55.71284°
Longitude
-101.17016°
Altitude
1,469.835 km
Speed
7.127 km/s
True Right ascension
05h 34m 30s
True Declination
55° 34' 02"
Sunlit
Object was in daylight at epoch
Visualization orbit readout
Latitude
Unknown
Longitude
Unknown
Altitude
Unknown
Speed
Unknown
Apparent Right ascension
Unknown
Apparent Declination
Unknown
Sunlit
N/A
Visualization observer readout
Local Sidereal Time
10:20:47
Azimuth
Unknown
Elevation
Unknown
Doppler factor
Unknown
Orbital elements
Apogee altitude
1,480.263 km
Perigee altitude
1,410.62 km
Semi-major axis
7,823.579 km
Eccentricity
0.00445
Inclination
101.5998°
RAAN
101.0581°
Arg. of periapsis
169.3011°
True anomaly
248.10458°
Mean anomaly
248.5784°
Eccentric anomaly
248.34139°
Mean motion
3.13643 °/min
Orbital period
114.78 mins
BSTAR
0.0014922
Loading maneuver chart data...
Computing Atmospheric mass density...
Loading historical data...
Loading historical data...
Loading historical data...
Loading historical data...
Loading historical data...
Loading historical data...
Loading historical data...

Documentation

Showing up to 5 results
|